Location: ?
(35.4064°N, 139.3593°E)
Time: 02:23:12
(UTC+00:00)

Meteor 2-4 Rocket - Visible Passes

Search period start: 19 July 2024 00:00
Search period end: 29 July 2024 00:00
Orbit: 798 x 908 km, 81.2° (Epoch: 18 July)

Date Brightness Start Highest point End Pass type
(mag) Time Alt. Az. Time Alt. Az. Time Alt. Az.
19 Jul 5.0 16:01:40 10° NNE 16:06:25 31° ENE 16:07:25 29° E visible
19 Jul 4.6 17:44:43 10° NW 17:49:14 27° W 17:49:26 27° W visible
20 Jul 5.1 15:50:24 10° NNE 15:55:03 28° ENE 15:55:43 28° E visible
20 Jul 4.6 17:33:16 10° NNW 17:37:44 29° W 17:37:44 29° W visible
21 Jul 5.2 15:39:09 10° NNE 15:43:42 26° ENE 15:44:03 26° E visible
21 Jul 4.6 17:21:49 10° NNW 17:26:04 31° W 17:26:04 31° W visible
22 Jul 5.3 15:27:54 10° NNE 15:32:20 25° ENE 15:32:24 25° ENE visible
22 Jul 4.6 17:10:24 10° NNW 17:14:26 33° WNW 17:14:26 33° WNW visible
23 Jul 5.5 15:16:40 10° NNE 15:20:48 23° ENE 15:20:48 23° ENE visible
23 Jul 4.6 16:58:59 10° NNW 17:02:49 34° WNW 17:02:49 34° WNW visible
24 Jul 5.6 15:05:27 10° NNE 15:09:13 21° ENE 15:09:13 21° ENE visible
24 Jul 4.7 16:47:33 10° NNW 16:51:15 34° WNW 16:51:15 34° WNW visible
25 Jul 5.7 14:54:15 10° NNE 14:57:41 20° ENE 14:57:41 20° ENE visible
25 Jul 4.7 16:36:09 10° NNW 16:39:42 35° NW 16:39:42 35° NW visible
26 Jul 5.8 14:43:04 10° NNE 14:46:09 18° ENE 14:46:09 18° ENE visible
26 Jul 4.8 16:24:45 10° NNW 16:28:11 35° NW 16:28:11 35° NW visible
27 Jul 5.8 14:31:54 10° NNE 14:34:38 17° ENE 14:34:38 17° ENE visible
27 Jul 4.8 16:13:21 10° NNW 16:16:40 35° NW 16:16:40 35° NW visible
28 Jul 5.9 14:20:45 10° NNE 14:23:09 15° ENE 14:23:09 15° ENE visible
28 Jul 4.9 16:01:58 10° NNW 16:05:12 34° NW 16:05:12 34° NW visible
